TIME,DELAY(SENSOR),PRES,T(CTD),SAL,OXYGEN,RAWTEMP,T(OPTODE),TCPHASE,FLUOR,BETA(BETA700),BETA(BETA412),BETA(BETA440),CDOM,C(CSC),ED(ED412.40),ED(ED444.00),ED(ED489.70),ED(ED554.30),LU(LU411.80),LU(LU443.40),LU(LU489.60),LU(LU554.10),COMP,TILTX,TILTX(TILTY),CHECK
1338586175,5806,497.1300048828125000,6.8703999519348145,34.1655998229980500,73.0331573486328100,591.9011230468750000,6.8455810546875000,49.6300392150878900,52,104,90,81,80,15329,2147751734,2147422464,2148000347,2147875657,2147628827,2147080713,2148239853,2147201005,660,4,13,19336
1338586296,5808,486.8699951171875000,6.8983001708984375,34.1613998413085940,77.1163787841796900,590.8488769531250000,6.8794817924499510,49.1175498962402340,52,105,86,79,80,15327,2147748571,2147421138,2148002496,2147874541,2147626761,2147085037,2148242569,2147200978,971,4,13,56380
1338586441,5804,476.1499938964844000,6.9828000068664550,34.1431007385253900,85.8345108032226600,587.8317260742188000,6.9766478538513180,48.0541992187500000,52,104,92,81,80,15327,2147748644,2147423734,2148002322,2147875355,2147628690,2147082505,2148240475,2147201362,3535,4,13,6071
1338586617,5807,464.7900085449219000,7.1536002159118650,34.1367988586425800,92.4279479980468800,582.9149780273438000,7.1348018646240230,47.2420310974121100,52,105,91,80,81,15327,2147749979,2147420562,2147999259,2147875392,2147630820,2147078043,2148239149,2147202514,293,4,13,10896
1338586806,5809,452.1900024414062500,7.3713998794555660,34.1142997741699200,108.2062988281250000,575.5241699218750000,7.3721289634704590,45.4644508361816400,50,107,87,81,79,15325,2147746514,2147423460,2148003593,2147875254,2147625618,2147090011,2148235264,2147202578,654,4,13,9678
1338586927,5807,441.6900024414062500,7.5074000358581540,34.1031990051269500,117.7351989746093800,571.8770751953125000,7.4890627861022950,44.4655799865722660,51,105,91,81,79,15327,2147746304,2147423067,2148002267,2147875574,2147627675,2147084553,2148239542,2147203611,546,4,13,5042
1338587061,5810,429.8299865722656000,7.7397999763488770,34.1092987060546900,123.4936981201171900,564.5014038085938000,7.7251830101013180,43.7968711853027340,51,105,92,79,78,15325,2147744219,2147421796,2147996992,2147873133,2147623488,2147087789,2148233563,2147203748,1410,4,14,14491
1338587182,5802,419.1199951171875000,7.9962000846862790,34.1066017150878900,130.3697052001953000,556.4628906250000000,7.9819908142089840,43.0291290283203100,51,108,90,80,79,15323,2147743405,2147420982,2148001270,2147874496,2147628278,2147085129,2148238134,2147207378,1686,4,13,24973
1338587303,5809,407.8999938964844000,8.3642997741699220,34.1046981811523440,141.4944000244140600,544.8643188476562000,8.3515777587890620,41.8568992614746100,50,106,89,81,77,15326,2147745133,2147424594,2148000603,2147874230,2147625764,2147087817,2148230866,2147204662,2013,4,13,62018
1338587415,5811,397.1499938964844000,8.7175998687744140,34.1024017333984400,154.3325042724609400,534.1621704101562000,8.6916284561157230,40.6187782287597660,50,106,91,80,77,15325,2147745115,2147423232,2148000987,2147874944,2147624082,2147091465,2148230994,2147205403,3179,4,13,28114
1338587525,5808,386.4599914550781000,9.0783004760742190,34.1027984619140600,165.5709991455078000,522.1069946289062000,9.0736007690429690,39.5443992614746100,50,106,91,81,76,15323,2147742720,2147422646,2147999835,2147873243,2147622610,2147093129,2148229558,2147203565,3191,4,13,54181
1338587646,5811,374.7000122070312500,9.3098001480102540,34.1120986938476560,172.5381927490234400,514.6566772460938000,9.3091115951538090,38.9062690734863300,50,105,90,81,75,15324,2147744576,2147422601,2147998857,2147872612,2147620598,2147094281,2148226770,2147203282,1988,3,14,59774
1338587758,5809,363.8699951171875000,9.6611995697021480,34.1213989257812500,180.7973937988281200,503.9143066406250000,9.6479806900024410,38.1413993835449200,50,105,88,81,74,15323,2147741650,2147422089,2148000932,2147873600,2147616475,2147103040,2148228077,2147207469,1400,4,13,38750
1338587879,5808,353.1799926757812500,9.8057003021240230,34.1264991760253900,186.3878936767578000,499.1340942382812500,9.7985095977783200,37.6823692321777340,50,108,89,79,74,15323,2147739456,2147420946,2147999908,2147874797,2147615716,2147105499,2148228361,2147204278,605,4,14,60983
1338588024,5808,343.1300048828125000,10.2508001327514650,34.1403999328613300,194.4051971435547000,485.2987060546875000,10.2333002090454100,36.9266586303710940,48,109,87,80,75,15325,2147738989,2147424182,2147999862,2147871104,2147612489,2147100361,2148220708,2147204278,625,4,14,5196
1338588222,5809,332.0499877929687500,10.8636999130249020,34.1693992614746100,211.7386016845703000,465.4360961914062500,10.8553104400634770,35.5452804565429700,49,106,88,80,71,15325,2147735597,2147424576,2148003209,2147873728,2147614290,2147109101,2148221110,2147206720,2682,4,14,37671
1338588388,5806,319.8599853515625000,11.2614002227783200,34.1861991882324200,211.8524017333984400,451.6918945312500000,11.2843103408813480,35.3150787353515600,48,108,87,81,71,15321,2147733942,2147425389,2148007725,2147874578,2147607963,2147113837,2148220818,2147207021,2386,4,13,61588
1338588498,5805,308.7500000000000000,11.6885004043579100,34.1974983215332000,203.8137969970703000,438.3052062988281000,11.7011098861694340,35.5714416503906250,49,109,92,81,71,15315,2147734409,2147426331,2148009033,2147874459,2147603538,2147111213,2148217993,2147208969,1775,3,14,5532
1338588608,5809,298.6199951171875000,12.3238000869750980,34.2206993103027340,197.4364013671875000,418.4453125000000000,12.3177003860473630,35.6429405212402340,50,111,93,81,72,15314,2147730532,2147426112,2148014994,2147874304,2147604854,2147123392,2148221019,2147209609,614,3,14,24910
1338588742,5809,287.9599914550781000,12.5635995864868160,34.2397003173828100,195.3932952880859400,408.0502929687500000,12.6396598815917970,35.6053504943847660,49,109,90,80,71,15312,2147729874,2147428416,2148024795,2147874514,2147599689,2147126336,2148223881,2147209133,362,3,13,11499
1338588907,5808,277.5599975585937500,13.4555997848510740,34.3050994873046900,196.7559967041015600,379.4219970703125000,13.5238599777221680,35.0720405578613300,49,109,91,80,71,15313,2147729801,2147428507,2148017691,2147874578,2147600109,2147129865,2148214454,2147208621,1970,3,15,30695
1338589074,5807,265.4800109863281000,14.1378002166748050,34.3606986999511700,201.9183044433593800,359.5533142089844000,14.1356296539306640,34.4533004760742200,49,108,92,80,69,15309,2147727003,2147438253,2148054701,2147874752,2147595931,2147141577,2148230317,2147210870,615,4,13,48863
1338589195,5810,253.6199951171875000,14.5115003585815430,34.3933982849121100,200.7382049560547000,344.1365051269531000,14.6093997955322270,34.2905998229980500,50,108,89,81,70,15307,2147722002,2147452662,2148087195,2147873088,2147593380,2147145124,2148240155,2147213339,55,3,14,20181
1338589307,5812,242.9700012207031200,15.5302000045776370,34.4821014404296900,202.3824005126953000,313.9265136718750000,15.5358200073242190,33.7422485351562500,51,110,90,83,69,15305,2147720429,2147441362,2148048109,2147871177,2147588781,2147152438,2148222582,2147212763,3439,3,14,7868
1338589428,5805,232.7200012207031200,16.4615001678466800,34.5844001770019500,203.3061981201172000,284.6196899414062500,16.4326496124267580,33.2599601745605500,51,113,92,80,68,15297,2147720566,2147459876,2148094180,2147870902,2147585270,2147163044,2148233965,2147216466,1393,3,15,61322
1338589581,5806,221.8200073242187500,17.0569000244140620,34.6607017517089840,205.9701995849609400,264.2771911621094000,17.0544109344482420,32.8135490417480500,53,108,88,81,67,15304,2147726820,2147513938,2148238500,2147873453,2147584128,2147207195,2148304411,2147220169,1831,3,15,53500
1338589757,5808,210.8500061035156200,18.5219993591308600,34.8199996948242200,207.2675018310547000,215.7241973876953000,18.5373001098632800,32.0574302673339840,67,113,91,82,66,15286,2147737700,2147571483,2148358738,2147873965,2147582418,2147239369,2148353846,2147223305,1149,2,15,49491
1338589921,5808,199.2599945068359400,18.9832992553710940,34.8711013793945300,208.3852996826172000,201.2160949707031200,18.9804306030273440,31.7946891784667970,78,115,92,84,66,15275,2147767734,2147689206,2148598610,2147875739,2147588800,2147300690,2148439844,2147231716,249,2,15,36918
1338589995,5808,192.8800048828125000,19.0077991485595700,34.8776016235351560,208.9842071533203000,200.2812042236328000,19.0089893341064450,31.7488594055175780,78,119,93,81,67,15274,2147794477,2147774976,2148761307,2147877522,2147600228,2147342683,2148510710,2147238464,2947,3,15,52497
1338590049,5809,188.0099945068359400,19.0711994171142580,34.8862991333007800,208.9414978027343800,196.5841979980468800,19.1219291687011720,31.7002906799316400,76,115,93,83,65,15272,2147823213,2147871177,2148934793,2147875611,2147607360,2147391725,2148588708,2147243840,2621,2,16,2370
1338590103,5810,183.0599975585937500,19.5937004089355470,34.9388999938964840,210.1475982666015600,181.2705993652343800,19.5899105072021500,31.4253292083740230,74,117,90,81,65,15276,2147864000,2147991716,2149165193,2147876315,2147621915,2147463259,2148689280,2147251337,2730,3,15,55734
1338590157,5809,178.3200073242187500,19.7534008026123050,34.9552993774414060,212.3305053710937500,176.2198944091797000,19.7443103790283200,31.2383708953857420,73,117,90,82,65,15270,2147926116,2148145709,2149452342,2147879177,2147643794,2147536612,2148817508,2147258368,3283,3,15,10513
1338590212,5809,173.6199951171875000,20.1546993255615230,35.0043983459472660,212.8285980224609400,162.0930938720703000,20.1763801574707030,31.0215091705322270,75,118,88,83,64,15269,2147949942,2148202313,2149520795,2147880886,2147658752,2147566592,2148842102,2147264621,826,3,15,28579
1338590266,5809,169.5299987792968800,20.3561000823974600,35.0209999084472660,215.9508056640625000,156.4808959960937500,20.3481197357177730,30.7808494567871100,80,118,90,84,64,15270,2148033600,2148401426,2149890093,2147883291,2147691145,2147680210,2149019885,2147278912,1130,3,15,29941
1338590344,5810,164.9499969482422000,20.4876003265380860,35.0323982238769500,217.5166015625000000,152.2622985839843800,20.4772491455078120,30.6429405212402340,88,122,89,83,65,15259,2148104813,2148558957,2150140772,2147885412,2147720201,2147765558,2149129362,2147286006,880,2,15,305
1338590420,5809,161.9700012207031200,20.5520000457763670,35.0378990173339840,218.4266967773437500,150.0787048339843800,20.5440998077392580,30.5665302276611330,88,120,93,81,64,15257,2148159808,2148668224,2150315328,2147885266,2147741668,2147817819,2149200731,2147290304,468,2,15,28913
1338590541,5807,157.8699951171875000,20.6315002441406250,35.0474014282226560,219.3184967041015600,147.5202026367187500,20.6224498748779300,30.4868793487548830,87,119,90,82,64,15259,2148271661,2148861696,2150620105,2147887817,2147788736,2147915995,2149336484,2147302464,271,2,15,55724
1338590648,5810,153.3699951171875000,20.7483997344970700,35.0648002624511700,220.6231994628906200,143.4846038818359400,20.7460498809814450,30.3667602539062500,87,120,91,83,64,15246,2148440420,2149156818,2151089014,2147895277,2147858285,2148073325,2149542692,2147316379,708,2,16,22415
1338590714,5807,149.3200073242187500,20.8111991882324220,35.0736007690429700,221.7012023925781200,141.7115020751953000,20.8003692626953120,30.2886199951171880,90,120,91,83,63,15243,2148640576,2149514761,2151641106,2147900050,2147943332,2148261046,2149792649,2147334601,986,3,15,30162
1338590779,5807,144.8699951171875000,20.8607997894287100,35.0760002136230500,221.7906036376953000,139.3852996826172000,20.8716506958007800,30.2533702850341800,92,123,93,84,65,15249,2148939072,2150027081,2152418614,2147909028,2148069028,2148516973,2150131968,2147362112,1514,2,16,3233
1338590834,5808,140.8999938964843800,20.9715995788574220,35.0828018188476560,222.3222045898437500,136.2756958007812500,20.9669399261474600,30.1855506896972660,96,126,94,83,63,15247,2149249197,2150525394,2153145746,2147917302,2148200640,2148773924,2150452361,2147394541,1299,2,16,55757
1338590888,5810,137.1600036621093800,21.1140003204345700,35.0947990417480500,222.8457946777343800,131.6307067871093800,21.1093406677246100,30.0984497070312500,101,123,91,82,64,15240,2149614710,2151065901,2153888914,2147927771,2148344448,2149036379,2150772379,2147413760,643,2,16,27833
1338590962,5807,132.6999969482422000,21.2213001251220700,35.1012992858886700,223.8269958496093800,128.4055938720703000,21.2082290649414060,30.0070590972900400,105,120,91,84,62,15230,2150158400,2151870656,2154982400,2147947291,2148567369,2149428873,2151232612,2147456073,302,2,16,39285
1338591027,5807,129.6699981689453000,21.5447006225585940,35.1287994384765600,223.8101043701172000,120.2483978271484400,21.4584999084472660,29.9015998840332030,115,122,94,84,64,15223,2150659236,2152624265,2156019876,2147962541,2148771483,2149790747,2151671122,2147488722,676,3,16,49332
1338591147,5810,126.3899993896484400,21.7457008361816400,35.1557006835937500,225.5529022216797000,112.8342971801757800,21.6861190795898440,29.7192001342773440,124,124,91,85,63,15215,2151085604,2153232621,2156824676,2147981092,2148942464,2150071085,2152000877,2147523099,900,3,16,27422
1338591397,5809,122.4199981689453100,21.9685993194580080,35.1749992370605500,227.8480987548828000,104.7014999389648400,21.9360103607177730,29.5017890930175780,130,124,91,84,63,15184,2151378834,2153322834,2156485869,2147983497,2149021220,2149944402,2151674011,2147507840,1346,2,16,45570
1338591573,5811,116.7300033569336000,22.0841007232666000,35.1850013732910160,229.3372955322265600,100.0333023071289000,22.0795307159423830,29.3698596954345700,140,132,90,83,63,15177,2154950162,2158438985,2163171501,2148106560,2150404809,2152077211,2154233910,2147741622,2772,1,16,2554
1338591638,5809,113.0000000000000000,22.1086006164550780,35.1853981018066400,229.9747924804687500,99.1098632812500000,22.1079292297363280,29.3274402618408200,150,129,94,84,62,15167,2156609097,2160509056,2165466788,2148160923,2151051721,2152890678,2155060772,2147832054,2386,1,16,40798
1338591703,5810,109.1100006103515600,22.2390003204345700,35.1834983825683600,230.3596038818359400,95.9904632568359400,22.2038898468017580,29.2688598632812500,149,131,92,85,63,15163,2159052178,2163547017,2168821833,2148251017,2151985462,2154086701,2156303149,2147962724,1791,2,15,57679
1338591768,5811,105.5299987792968800,22.3969001770019530,35.1710014343261700,230.9277954101562500,90.2350463867187500,22.3810291290283200,29.1682701110839840,150,131,93,86,62,15155,2162199021,2167480521,2173199588,2148373860,2153187044,2155633188,2157915254,2148126985,1323,1,16,12988
1338591857,5808,101.4899978637695300,22.5273990631103500,35.1702003479003900,232.6372070312500000,85.7006530761718800,22.5206699371337900,29.0297508239746100,159,134,93,85,60,15136,2166100461,2172096685,2177886921,2148527661,2154719716,2157434596,2159630710,2148323026,464,2,16,21420
1338591922,5809,98.8600006103515600,22.6333007812500000,35.1600990295410160,233.9501953125000000,83.2432327270507800,22.5963706970214840,28.9367809295654300,163,129,91,85,61,15141,2168990848,2175297929,2180820516,2148635666,2155900150,2158788004,2160857170,2148456100,1242,3,16,59234
1338591977,5806,97.0599975585937500,22.6902008056640620,35.1533012390136700,234.5950012207031200,80.8822937011718800,22.6691303253173830,28.8768405914306640,165,133,97,85,61,15124,2171412352,2178222994,2183572205,2148742683,2156964150,2160006811,2161962660,2148584914,1726,2,16,19317
1338592054,5811,95.4000015258789000,22.7339992523193360,35.1515998840332000,236.1539001464843800,78.5380935668945300,22.7413902282714840,28.7747306823730470,169,130,92,84,60,15118,2173966646,2181195190,2186216274,2148833334,2158034925,2161142445,2162912932,2148696896,2854,1,16,49804
1338592198,5810,93.3700027465820300,23.0860004425048830,35.1399002075195300,238.2783050537109400,68.9306030273437500,23.0377807617187500,28.5560798645019530,119,123,90,85,60,15133,2178454262,2186363017,2190684690,2148976146,2160336548,2163607021,2164887232,2148919478,2552,2,16,38196
1338592297,5807,91.4800033569336000,23.2661991119384770,35.1385993957519500,240.0921020507812500,61.9585418701171900,23.2531108856201170,28.3864707946777340,91,122,94,84,60,15176,2182136694,2190283840,2193979922,2149132781,2163042166,2166625426,2167238848,2149153280,2408,2,16,26732
1338592396,5807,89.3099975585937500,23.3285007476806640,35.1347999572753900,241.8531036376953000,59.6396903991699200,23.3247699737548830,28.2784309387207030,87,122,94,84,62,15159,2187030171,2195584448,2198774454,2149387922,2166268717,2170231661,2170069677,2149447661,2006,1,16,21294
1338592496,5806,86.0199966430664000,23.4545001983642580,35.1327018737793000,242.8246002197265600,55.3551788330078100,23.4572391510009770,28.1817092895507800,82,119,89,84,61,15174,2194400786,2203172955,2205368557,2149770413,2171286838,2175681152,2174303506,2149880256,1148,2,16,65061
1338592551,5808,83.2200012207031200,23.5478000640869140,35.1305999755859400,243.3831024169922000,52.5502090454101560,23.5440101623535160,28.1220893859863280,76,124,90,85,60,15176,2200503515,2209703030,2211286061,2150120384,2175340635,2179982784,2177583058,2150222418,612,2,16,44538
1338592606,5806,80.5199966430664000,23.5673999786376950,35.1311988830566400,243.9608001708984400,51.8831100463867200,23.5646495819091800,28.0883808135986330,77,122,91,84,59,15183,2207190235,2216796873,2217635520,2150631113,2180282998,2185143817,2181452891,2150654500,3140,2,16,64623
1338592661,5808,77.8600006103515600,23.6408004760742200,35.1325988769531250,244.3726043701172000,50.0149993896484400,23.6224594116210940,28.0470008850097660,74,121,92,83,59,15173,2213616384,2223456886,2223562624,2151189897,2185514112,2190670089,2185563236,2151110802,2624,2,16,38088
1338592716,5808,75.3799972534179700,23.7786998748779300,35.1297988891601560,244.2348022460937500,45.6645889282226560,23.7571601867675780,27.9990100860595700,72,122,94,85,57,15175,2218778486,2228168347,2227204352,2151633581,2190442587,2195530240,2188881216,2151476653,2357,2,16,45550
1338592771,5808,73.5000000000000000,23.8715991973876950,35.1367988586425800,245.0247039794922000,42.4179382324218750,23.8577404022216800,27.9241600036621100,70,123,92,84,59,15180,2224298377,2233856109,2232498880,2152191762,2194725595,2199700946,2191632100,2151797110,2740,1,16,24777
1338592828,5805,72.0400009155273400,23.9281005859375000,35.1343002319335940,245.5592041015625000,40.1248588562011700,23.9288101196289060,27.8724594116210940,69,123,92,84,58,15174,2231123172,2241383414,2239879305,2152777865,2200271853,2205587721,2196130560,2152267867,3094,2,16,43979
1338592905,5809,70.3899993896484400,23.9836997985839840,35.1239013671875000,246.2191009521484400,38.4928817749023440,23.9794101715087900,27.8235607147216800,66,126,94,85,57,15172,2234571382,2243584219,2240548370,2153019702,2204824064,2209738221,2198629156,2152489371,3433,2,16,8343
1338593004,5807,68.1699981689453100,24.0034008026123050,35.1160011291503900,246.2546997070312500,37.6093292236328100,24.0068092346191400,27.8110103607177730,65,120,94,85,58,15169,2245235574,2254800704,2251654125,2154274934,2212912521,2217999085,2204576987,2153233298,834,1,16,24402
1338593070,5809,66.1800003051757800,24.1721000671386720,35.0834999084472660,245.8115997314453000,33.4230613708496100,24.1366691589355470,27.7787303924560550,63,123,94,85,59,15153,2218928704,2222935661,2218042057,2152226523,2198485540,2200608740,2189335168,2151540873,392,2,17,58885
1338593159,5806,63.8199996948242200,24.5419998168945300,35.0610008239746100,243.7989959716797000,21.0828895568847660,24.5200099945068360,27.7146797180175780,60,119,91,85,55,15182,2260693769,2270483657,2265993691,2156433371,2229576786,2234318820,2216202550,2154613750,2246,2,16,33853
1338593258,5808,62.9300003051757800,24.6539993286132800,35.0556983947753900,242.9486999511718800,16.9705791473388670,24.6479301452636720,27.7014503479003900,60,118,92,84,57,15185,2260096265,2269996425,2265485229,2156462966,2230899364,2234624877,2215483154,2154560548,3132,1,17,32557
1338593512,5810,61.2999992370605500,24.6844997406005860,35.0536994934082000,242.0906982421875000,15.7810602188110350,24.6849498748779300,27.7247104644775400,58,117,93,84,58,15182,2236615771,2241758070,2236033929,2154398153,2224835053,2224767259,2204997705,2153234962,2946,2,16,31636
1338593589,5810,59.0299987792968750,24.6854991912841800,35.0540008544921900,242.1356964111328000,15.6252803802490230,24.6898002624511720,27.7208194732666000,57,118,91,84,56,15176,2280679890,2293040146,2288276772,2159886893,2264573129,2265330441,2234545938,2156663149,2791,2,16,3108
1338593644,5808,57.0400009155273440,24.6926002502441400,35.0530014038085940,241.9810028076172000,15.4348802566528320,24.6957302093505860,27.7253398895263670,57,119,92,84,54,15179,2283592941,2295206729,2290184713,2161212864,2275171346,2274352118,2239764754,2157289572,2590,1,17,46397
1338593699,5809,54.7500000000000000,24.6928997039794920,35.0528984069824200,242.1304016113281200,15.3792104721069340,24.6974601745605470,27.7179603576660160,57,116,94,85,58,15170,2247774619,2253519835,2247848566,2157736338,2247016804,2243181714,2214906898,2154520420,2408,2,16,728
1338593777,5809,50.4199981689453100,24.6926994323730470,35.0537986755371100,242.1511993408203000,15.3789196014404300,24.6974697113037100,27.7170200347900400,57,117,95,83,58,15172,2309593124,2322774491,2318208438,2169015030,2314061760,2309171474,2261722934,2160596233,2364,1,17,45772
1338593832,5809,46.5400009155273440,24.6954002380371100,35.0531997680664060,242.0923004150390600,15.4630098342895500,24.6948509216308600,27.7207603454589840,55,116,94,83,58,15174,2209730349,2209111268,2203088877,2154538825,2216698605,2209015533,2187889005,2151833499,2169,2,16,6374
1338593887,5806,42.5699996948242200,24.6986999511718750,35.0528984069824200,242.2247924804687500,15.1461296081542970,24.7047100067138670,27.7109794616699220,55,116,93,84,59,15175,2353926061,2371103213,2369188937,2186310628,2379027264,2369210340,2301980160,2167222427,1972,1,17,47588
1338593942,5816,38.8499984741210940,24.7024993896484380,35.0523986816406250,242.2006988525390600,14.9697904586792000,24.7101993560791000,27.7098197937011720,54,115,93,84,59,15182,2371897508,2389156644,2387804608,2195825289,2408302957,2396516169,2321081581,2171099702,1809,1,17,22233
1338593997,5806,35.3199996948242200,24.7056999206542970,35.0527000427246100,242.3318939208984400,14.8262996673583980,24.7146701812744140,27.7021999359130860,53,115,92,84,56,15182,2399669577,2418111780,2417986569,2210739337,2448463232,2432949248,2345012470,2175977133,1573,2,17,62334
1338594052,5805,31.6800003051757800,24.7173004150390620,35.0527992248535160,242.3448028564453000,14.4442195892333980,24.7265605926513670,27.6970405578613280,54,114,92,85,53,15179,2414403721,2434762358,2437748306,2229705536,2473230829,2454764452,2358802633,2181122688,1753,2,17,47940
1338594126,5811,27.2199993133544920,24.7299003601074220,35.0531005859375000,242.3708038330078000,13.9901504516601560,24.7406997680664060,27.6902408599853500,52,118,91,84,59,15176,2423165275,2442989705,2445619017,2246063030,2498792649,2473934226,2369861833,2185854601,2226,2,16,40366
1338594181,5808,24.3600006103515620,24.7315006256103500,35.0532989501953100,242.6293945312500000,13.7532300949096680,24.7480792999267580,27.6760101318359380,53,114,92,82,59,15178,2455001892,2477941458,2484299913,2272366080,2528942070,2500930322,2388000685,2193075931,2037,0,17,25651
